TimeMDT,TemperatureF,Dew PointF,Humidity,Sea Level PressureIn,VisibilityMPH,Wind Direction,Wind SpeedMPH,Gust SpeedMPH,PrecipitationIn,Events,Conditions,WindDirDegrees,DateUTC
12:54 AM,27.0,25.0,92,30.20,10.0,ESE,4.6,-,N/A,,Partly Cloudy,120,2011-10-16 06:54:00
1:54 AM,27.0,25.0,92,30.20,10.0,SE,5.8,-,N/A,,Clear,130,2011-10-16 07:54:00
2:54 AM,28.9,26.1,89,30.18,10.0,ESE,6.9,-,N/A,,Overcast,120,2011-10-16 08:54:00
3:54 AM,28.9,24.1,82,30.17,10.0,Calm,Calm,-,N/A,,Clear,0,2011-10-16 09:54:00
4:54 AM,28.9,25.0,85,30.16,10.0,East,6.9,-,N/A,,Mostly Cloudy,100,2011-10-16 10:54:00
5:54 AM,28.9,25.0,85,30.15,10.0,ESE,5.8,-,N/A,,Clear,110,2011-10-16 11:54:00
6:54 AM,30.0,26.1,85,30.15,10.0,ESE,4.6,-,N/A,,Clear,120,2011-10-16 12:54:00
7:54 AM,30.0,26.1,85,30.16,10.0,ESE,4.6,-,N/A,,Clear,120,2011-10-16 13:54:00
8:54 AM,33.1,28.9,85,30.15,10.0,ESE,4.6,-,N/A,,Clear,120,2011-10-16 14:54:00
9:54 AM,37.9,30.9,76,30.11,10.0,ESE,6.9,-,N/A,,Clear,120,2011-10-16 15:54:00
10:54 AM,43.0,30.0,60,30.09,10.0,East,4.6,-,N/A,,Clear,100,2011-10-16 16:54:00
11:54 AM,48.0,30.9,52,30.06,10.0,Calm,Calm,-,N/A,,Partly Cloudy,0,2011-10-16 17:54:00
12:54 PM,48.9,30.9,50,30.04,10.0,Calm,Calm,-,N/A,,Overcast,0,2011-10-16 18:54:00
1:54 PM,50.0,30.9,48,30.02,10.0,Calm,Calm,-,N/A,,Overcast,0,2011-10-16 19:54:00
2:54 PM,46.9,37.0,68,30.02,5.0,WNW,3.5,-,0.01,Rain,Light Rain,300,2011-10-16 20:54:00
3:54 PM,44.1,39.9,85,30.03,10.0,NW,8.1,-,0.01,,Overcast,320,2011-10-16 21:54:00
4:54 PM,43.0,37.9,82,30.04,10.0,North,4.6,-,0.00,,Overcast,360,2011-10-16 22:54:00
5:54 PM,42.1,39.0,89,30.04,10.0,Calm,Calm,-,0.01,Rain,Light Rain,0,2011-10-16 23:54:00
6:54 PM,41.0,39.0,93,30.05,10.0,Calm,Calm,-,0.00,Rain,Light Rain,0,2011-10-17 00:54:00
7:54 PM,41.0,39.9,96,30.06,10.0,West,4.6,-,0.00,,Overcast,280,2011-10-17 01:54:00
8:54 PM,41.0,39.0,93,30.08,10.0,West,3.5,-,N/A,,Overcast,260,2011-10-17 02:54:00
9:20 PM,41.0,37.4,87,30.04,10.0,West,5.8,-,N/A,,Overcast,260,2011-10-17 03:20:00
9:54 PM,41.0,39.0,93,30.09,10.0,West,4.6,-,N/A,,Overcast,280,2011-10-17 03:54:00
10:54 PM,39.0,37.9,96,30.10,10.0,West,6.9,-,N/A,,Scattered Clouds,280,2011-10-17 04:54:00
11:54 PM,37.9,34.0,86,30.12,10.0,WNW,8.1,-,N/A,,Clear,290,2011-10-17 05:54:00